Marion Regional, IL

11:30 AM CST on November 24, 2017 (GMT -0600)
Williamson County Regional

Weather History for KMWA - December, 2013

Change the Weather History Date:

Friday, December 6, 2013

  Actual Average Record
Temperature  
Mean Temperature 22 °F -  
Max Temperature 24 °F 46 °F 73 °F (1998)
Min Temperature 19 °F 26 °F 10 °F (1977)
Degree Days  
Heating Degree Days 44    
Moisture  
Dew Point 19 °F    
Average Humidity 84    
Maximum Humidity 100    
Minimum Humidity 68    
Precipitation  
Precipitation 0.09 in - - ()
Sea Level Pressure  
Sea Level Pressure 30.36 in    
Wind  
Wind Speed 9 mph (North)    
Max Wind Speed 16 mph    
Max Gust Speed -    
Visibility 6 miles    
Events Snow    
Averages and records for this station are not official NWS values.
T = Trace of Precipitation, MM = Missing Value Source: NWS Daily Summary

Daily Weather History Graph

Daily Weather History Graph

Search for Another Location

Airport or City:

Trip Planner

Search our weather history database for the weather conditions in past years. The results will help you decide how hot, cold, wet, or windy it might be!

Date:

Astronomy

Dec. 06, 2013 Rise Set
Actual Time 6:57 AM CST 4:36 PM CST
Civil Twilight 6:28 AM CST 5:06 PM CST
Nautical Twilight 5:55 AM CST 5:38 PM CST
Astronomical Twilight 5:23 AM CST 6:10 PM CST
Moon 10:05 AM CST (12/6) 9:05 PM CST (12/6)
Length of Visible Light 10h 37m
Length of Day
9h 39m
Waxing Crescent, 19% of the Moon is Illuminated
Dec 6
Waxing Crescent
Dec 9
First Quarter
Dec 17
Full
Dec 25
Last Quarter
Jan 1
New

Hourly Weather History & Observations

Time (CST) Temp. Windchill Dew Point Humidity Pressure Visibility Wind Dir Wind Speed Gust Speed Precip Events Conditions
12:15 AM 24.8 °F 16.1 °F 21.2 °F 86% 30.25 in 2.0 mi North 8.1 mph - N/A Snow Light Snow
12:35 AM 24.8 °F 16.1 °F 21.2 °F 86% 30.27 in 2.0 mi NNW 8.1 mph - 0.02 in Snow Light Snow
12:55 AM 24.8 °F 16.9 °F 21.2 °F 86% 30.25 in 1.2 mi North 6.9 mph - 0.03 in Snow Light Snow
1:15 AM 24.8 °F 16.9 °F 21.2 °F 86% 30.25 in 1.5 mi North 6.9 mph - 0.01 in Snow Light Snow
1:35 AM 24.8 °F 16.9 °F 21.2 °F 86% 30.26 in 3.0 mi North 6.9 mph - 0.02 in Snow Light Snow
1:55 AM 24.8 °F 17.9 °F 23.0 °F 93% 30.27 in 1.8 mi North 5.8 mph - 0.02 in Snow Light Snow
2:15 AM 24.8 °F 16.1 °F 23.0 °F 93% 30.26 in 4.0 mi North 8.1 mph - 0.01 in Snow Light Snow
2:35 AM 24.8 °F 16.1 °F 21.2 °F 86% 30.25 in 4.0 mi North 8.1 mph - 0.01 in Snow Light Snow
2:55 AM 24.8 °F 15.3 °F 21.2 °F 86% 30.24 in 4.0 mi North 9.2 mph - 0.01 in Snow Light Snow
3:15 AM 24.8 °F 16.1 °F 21.2 °F 86% 30.24 in 4.0 mi North 8.1 mph - N/A Snow Light Snow
3:35 AM 23.0 °F 13.9 °F 21.2 °F 93% 30.23 in 7.0 mi North 8.1 mph - N/A   Overcast
3:55 AM 24.8 °F 16.9 °F 21.2 °F 86% 30.22 in 7.0 mi North 6.9 mph - N/A   Overcast
4:15 AM 24.8 °F 16.9 °F 21.2 °F 86% 30.24 in 7.0 mi North 6.9 mph - N/A Snow Light Snow
4:35 AM 24.8 °F 16.9 °F 21.2 °F 86% 30.24 in 5.0 mi North 6.9 mph - N/A Snow Light Snow
5:35 AM 23.0 °F 14.7 °F 21.2 °F 93% 30.27 in 1.0 mi North 6.9 mph - 0.01 in Snow Snow
5:55 AM 23.0 °F 13.9 °F 21.2 °F 93% 30.27 in 1.5 mi North 8.1 mph - 0.01 in Snow Light Snow
6:15 AM 23.0 °F 13.1 °F 21.2 °F 93% 30.28 in 1.0 mi North 9.2 mph - 0.02 in Snow Snow
6:55 AM 23.0 °F 13.1 °F 19.4 °F 86% 30.28 in 2.8 mi North 9.2 mph - N/A Snow Light Snow
7:55 AM 23.0 °F 13.1 °F 21.2 °F 93% 30.32 in 2.8 mi North 9.2 mph - N/A Snow Light Snow
8:55 AM 23.0 °F 11.7 °F 19.4 °F 86% 30.34 in 1.0 mi North 11.5 mph - N/A Snow Light Snow
9:55 AM 23.0 °F 11.7 °F 19.4 °F 86% 30.32 in 0.8 mi North 11.5 mph - N/A Snow Snow
10:55 AM 23.0 °F 10.6 °F 23.0 °F 100% 30.33 in 0.5 mi North 13.8 mph - N/A Snow Snow
11:56 AM 23.0 °F 11.7 °F 19.4 °F 86% 30.30 in 1.0 mi North 11.5 mph - N/A Snow Light Snow
12:54 PM 23.0 °F 9.6 °F 19.4 °F 86% 30.29 in 1.0 mi North 16.1 mph - N/A Snow Light Snow
1:54 PM 23.0 °F 10.1 °F 19.4 °F 86% 30.29 in 2.0 mi North 15.0 mph - N/A Snow Light Snow
2:53 PM 23.0 °F 10.1 °F 19.4 °F 86% 30.33 in 5.5 mi North 15.0 mph - N/A Snow Light Snow
3:58 PM 23.0 °F 10.1 °F 19.4 °F 86% 30.35 in 2.0 mi North 15.0 mph - N/A Snow Light Snow
4:56 PM 23.0 °F 10.1 °F 19.4 °F 86% 30.37 in 10.5 mi North 15.0 mph - N/A Snow Light Snow
5:50 PM 23.0 °F 11.7 °F 17.6 °F 80% 30.40 in 7.0 mi North 11.5 mph - N/A Snow Light Snow
6:55 PM 21.2 °F 12.6 °F 17.6 °F 86% 30.44 in 10.0 mi North 6.9 mph - N/A   Overcast
7:15 PM 21.2 °F 12.6 °F 15.8 °F 80% 30.45 in 10.0 mi North 6.9 mph - N/A   Overcast
7:35 PM 21.2 °F 11.7 °F 15.8 °F 80% 30.46 in 10.0 mi North 8.1 mph - N/A   Overcast
7:55 PM 21.2 °F 12.6 °F 15.8 °F 80% 30.46 in 10.0 mi NNW 6.9 mph - N/A   Overcast
8:15 PM 21.2 °F 12.6 °F 15.8 °F 80% 30.47 in 10.0 mi North 6.9 mph - N/A   Overcast
8:35 PM 21.2 °F 11.7 °F 15.8 °F 80% 30.47 in 10.0 mi North 8.1 mph - N/A   Overcast
8:55 PM 21.2 °F 11.7 °F 14.0 °F 74% 30.48 in 10.0 mi North 8.1 mph - N/A   Overcast
9:15 PM 21.2 °F 12.6 °F 14.0 °F 74% 30.49 in 10.0 mi NNW 6.9 mph - N/A   Overcast
9:35 PM 21.2 °F 10.9 °F 14.0 °F 74% 30.50 in 10.0 mi North 9.2 mph - N/A   Overcast
9:55 PM 21.2 °F 10.9 °F 14.0 °F 74% 30.50 in 10.0 mi NNW 9.2 mph - N/A   Overcast
10:15 PM 21.2 °F 11.7 °F 14.0 °F 74% 30.52 in 10.0 mi NNW 8.1 mph - N/A   Overcast
10:35 PM 21.2 °F 10.9 °F 12.2 °F 68% 30.53 in 10.0 mi North 9.2 mph - N/A   Overcast
10:55 PM 21.2 °F 13.6 °F 14.0 °F 74% 30.54 in 10.0 mi North 5.8 mph - N/A   Overcast
11:15 PM 21.2 °F 14.9 °F 14.0 °F 74% 30.54 in 10.0 mi NNW 4.6 mph - N/A   Overcast
11:35 PM 19.4 °F 11.5 °F 14.0 °F 80% 30.54 in 10.0 mi NNW 5.8 mph - N/A   Mostly Cloudy
11:55 PM 19.4 °F 12.8 °F 12.2 °F 74% 30.55 in 10.0 mi NNW 4.6 mph - N/A   Scattered Clouds